Weather History for Pampa / Mesa Vista, TX

Change the Weather History Date:

Monday, December 31, 2012

  Actual Average (KBGD) Record (KBGD)
Temperature  
Mean Temperature 27 °F 37 °F  
Max Temperature 33 °F 49 °F 74 °F (2011)
Min Temperature 21 °F 25 °F 2 °F (1976)
Degree Days  
Heating Degree Days 38 28  
Month to date heating degree days 822  
Since 1 July heating degree days 1537  
Cooling Degree Days 0 0  
Month to date cooling degree days 0  
Year to date cooling degree days 1839  
Moisture  
Dew Point 27 °F    
Average Humidity 93    
Maximum Humidity 100    
Minimum Humidity 86    
Precipitation  
Precipitation 0.25 in 0.04 in 0.33 in (1991)
Month to date precipitation 0.77  
Year to date precipitation 21.72  
Snow  
Snow 0.00 in - - ()
Month to date snowfall  
Since 1 July snowfall  
Snow Depth -    
Sea Level Pressure  
Sea Level Pressure 29.99 in    
Wind  
Wind Speed 7 mph (NW)    
Max Wind Speed 17 mph    
Max Gust Speed 23 mph    
Visibility 8 miles    
Events Rain , Snow    
T = Trace of Precipitation, MM = Missing Value Source: NWS Daily Summary

Daily Weather History Graph

Daily Weather History Graph

Search for Another Location

Airport:

Trip Planner

Search our weather history database for the weather conditions in past years. The results will help you decide how hot, cold, wet, or windy it might be!

Date:

Astronomy

Dec. 31, 2012 Rise Set
Actual Time 7:54 AM CST 5:40 PM CST
Civil Twilight 7:25 AM CST 6:09 PM CST
Nautical Twilight 6:53 AM CST 6:41 PM CST
Astronomical Twilight 6:22 AM CST 7:12 PM CST
Moon 9:05 PM CST (12/31) 9:43 AM CST (12/31)
Length of Visible Light 10h 43m
Length of Day
9h 46m
Waning Gibbous, 90% of the Moon is Illuminated
Dec 31
Waning Gibbous
Jan 4
Last Quarter
Jan 11
New
Jan 18
First Quarter
Jan 26
Full

Hourly Weather History & Observations

Time (CST) Temp. Windchill Dew Point Humidity Pressure Visibility Wind Dir Wind Speed Gust Speed Precip Events Conditions
12:15 AM 33.8 °F 28.6 °F 30.2 °F 87% 30.00 in 7.0 mi South 5.8 mph - 0.01 in Rain Light Rain
12:35 AM 33.8 °F 29.6 °F 30.2 °F 87% 29.99 in 5.0 mi SSW 4.6 mph - 0.02 in Rain Rain
12:55 AM 32.0 °F 27.5 °F 30.2 °F 93% 30.00 in 5.0 mi South 4.6 mph - 0.03 in Rain Rain
1:15 AM 32.0 °F 26.4 °F 32.0 °F 100% 29.99 in 5.0 mi SSW 5.8 mph - 0.03 in Rain Rain
1:55 AM 32.0 °F 28.7 °F 32.0 °F 100% 29.98 in 4.0 mi South 3.5 mph - 0.07 in Rain Rain
2:15 AM 32.0 °F 28.7 °F 32.0 °F 100% 29.97 in 5.0 mi SSW 3.5 mph - 0.02 in Rain Rain
2:35 AM 32.0 °F 28.7 °F 32.0 °F 100% 29.97 in 7.0 mi SSW 3.5 mph - 0.04 in Rain Rain
2:55 AM 32.0 °F - 32.0 °F 100% 29.96 in 4.0 mi Calm Calm - 0.05 in Rain Rain
3:15 AM 32.0 °F 27.5 °F 32.0 °F 100% 29.95 in 7.0 mi South 4.6 mph - N/A Rain Rain
3:35 AM 32.0 °F - 32.0 °F 100% 29.94 in 7.0 mi Calm Calm - 0.01 in Rain Rain
3:55 AM 32.0 °F - 32.0 °F 100% 29.94 in 7.0 mi Calm Calm - 0.02 in Rain Rain
4:15 AM 32.0 °F - 32.0 °F 100% 29.93 in 5.0 mi Calm Calm - 0.02 in Rain Rain
4:35 AM 32.0 °F 27.5 °F 32.0 °F 100% 29.94 in 4.0 mi WNW 4.6 mph - 0.02 in Rain Rain
5:15 AM 32.0 °F - 32.0 °F 100% 29.94 in 2.0 mi Calm Calm - 0.02 in Rain Light Rain
5:55 AM 32.0 °F 27.5 °F 32.0 °F 100% 29.91 in 3.0 mi SE 4.6 mph - 0.02 in   Overcast
6:15 AM 32.0 °F 27.5 °F 32.0 °F 100% 29.91 in 2.5 mi SSE 4.6 mph - 0.01 in Snow Light Snow
6:55 AM 32.0 °F 27.5 °F 32.0 °F 100% 29.91 in 4.0 mi SSE 4.6 mph - 0.04 in Snow Light Snow
7:15 AM 32.0 °F 25.6 °F 32.0 °F 100% 29.91 in 5.0 mi South 6.9 mph - N/A Snow Light Snow
7:35 AM 32.0 °F 27.5 °F 32.0 °F 100% 29.91 in 5.0 mi South 4.6 mph - N/A Rain Light Rain
7:55 AM 32.0 °F 25.6 °F 32.0 °F 100% 29.91 in 10.0 mi South 6.9 mph - N/A   Overcast
8:15 AM 32.0 °F 24.8 °F 32.0 °F 100% 29.91 in 10.0 mi South 8.1 mph - N/A   Overcast
8:35 AM 32.0 °F 27.5 °F 32.0 °F 100% 29.91 in 10.0 mi South 4.6 mph - N/A   Overcast
8:55 AM 32.0 °F 28.7 °F 32.0 °F 100% 29.92 in 7.0 mi SW 3.5 mph - N/A   Overcast
9:15 AM 32.0 °F 26.4 °F 32.0 °F 100% 29.93 in 10.0 mi West 5.8 mph - N/A   Overcast
9:35 AM 32.0 °F 24.8 °F 32.0 °F 100% 29.94 in 4.0 mi WNW 8.1 mph - N/A   Overcast
9:55 AM 32.0 °F 25.6 °F 32.0 °F 100% 29.94 in 10.0 mi WNW 6.9 mph - N/A   Overcast
10:15 AM 32.0 °F 24.2 °F 32.0 °F 100% 29.95 in 10.0 mi WNW 9.2 mph - N/A   Overcast
10:35 AM 32.0 °F 24.8 °F 30.2 °F 93% 29.95 in 10.0 mi NW 8.1 mph - N/A   Overcast
10:55 AM 32.0 °F 22.5 °F 30.2 °F 93% 29.96 in 10.0 mi WNW 12.7 mph - N/A   Overcast
11:15 AM 32.0 °F 22.5 °F 30.2 °F 93% 29.96 in 7.0 mi WNW 12.7 mph - N/A Snow Light Snow
11:35 AM 32.0 °F 23.0 °F 30.2 °F 93% 29.96 in 10.0 mi WNW 11.5 mph - N/A   Overcast
11:55 AM 32.0 °F 23.0 °F 30.2 °F 93% 29.95 in 10.0 mi NW 11.5 mph - N/A   Overcast
12:15 PM 32.0 °F 21.6 °F 30.2 °F 93% 29.95 in 10.0 mi NW 15.0 mph - N/A   Overcast
12:55 PM 30.2 °F 20.2 °F 28.4 °F 93% 29.94 in 10.0 mi NW 12.7 mph 18.4 mph N/A   Overcast
1:15 PM 30.2 °F 21.3 °F 28.4 °F 93% 29.93 in 10.0 mi NW 10.4 mph - N/A   Overcast
1:35 PM 30.2 °F 20.2 °F 28.4 °F 93% 29.94 in 10.0 mi NW 12.7 mph - N/A   Overcast
1:55 PM 30.2 °F 19.8 °F 28.4 °F 93% 29.93 in 10.0 mi NNW 13.8 mph 18.4 mph N/A   Overcast
2:15 PM 30.2 °F 18.9 °F 26.6 °F 86% 29.94 in 10.0 mi NW 16.1 mph 23.0 mph N/A   Overcast
2:35 PM 30.2 °F 19.8 °F 26.6 °F 86% 29.95 in 10.0 mi NW 13.8 mph 20.7 mph N/A   Overcast
2:55 PM 28.4 °F 17.0 °F 26.6 °F 93% 29.95 in 10.0 mi NNW 15.0 mph 23.0 mph N/A   Overcast
3:15 PM 28.4 °F 17.0 °F 26.6 °F 93% 29.96 in 10.0 mi North 15.0 mph - N/A   Overcast
3:35 PM 28.4 °F 16.2 °F 26.6 °F 93% 29.97 in 10.0 mi NNW 17.3 mph 23.0 mph N/A   Overcast
3:55 PM 28.4 °F 18.5 °F 24.8 °F 86% 29.98 in 10.0 mi NNW 11.5 mph - N/A   Overcast
4:15 PM 28.4 °F 17.5 °F 24.8 °F 86% 29.98 in 10.0 mi NNW 13.8 mph - N/A   Overcast
4:35 PM 28.4 °F 17.5 °F 24.8 °F 86% 29.99 in 10.0 mi NNW 13.8 mph 18.4 mph N/A   Overcast
5:15 PM 26.6 °F 16.2 °F 23.0 °F 86% 30.01 in 10.0 mi North 11.5 mph - N/A   Overcast
5:35 PM 26.6 °F 15.7 °F 23.0 °F 86% 30.03 in 10.0 mi North 12.7 mph - N/A   Overcast
5:55 PM 26.6 °F 17.5 °F 23.0 °F 86% 30.03 in 10.0 mi North 9.2 mph - N/A   Overcast
6:15 PM 26.6 °F 16.2 °F 23.0 °F 86% 30.05 in 10.0 mi North 11.5 mph 16.1 mph N/A   Overcast
6:35 PM 26.6 °F 18.2 °F 23.0 °F 86% 30.05 in 10.0 mi North 8.1 mph - N/A   Overcast
6:55 PM 26.6 °F 20.0 °F 23.0 °F 86% 30.06 in 10.0 mi NNW 5.8 mph - N/A   Overcast
7:15 PM 26.6 °F 16.8 °F 23.0 °F 86% 30.06 in 10.0 mi North 10.4 mph - N/A   Overcast
7:35 PM 26.6 °F 19.1 °F 23.0 °F 86% 30.08 in 10.0 mi NNW 6.9 mph - N/A   Overcast
7:55 PM 26.6 °F 17.5 °F 23.0 °F 86% 30.08 in 10.0 mi North 9.2 mph - N/A   Overcast
8:15 PM 26.6 °F 19.1 °F 23.0 °F 86% 30.09 in 10.0 mi North 6.9 mph - N/A   Overcast
8:35 PM 24.8 °F 14.6 °F 21.2 °F 86% 30.09 in 10.0 mi North 10.4 mph - N/A   Mostly Cloudy
8:55 PM 23.0 °F 13.9 °F 21.2 °F 93% 30.10 in 10.0 mi North 8.1 mph - N/A   Scattered Clouds
9:15 PM 23.0 °F 13.9 °F 19.4 °F 86% 30.10 in 10.0 mi North 8.1 mph - N/A   Clear
9:35 PM 23.0 °F 14.7 °F 19.4 °F 86% 30.11 in 10.0 mi NNW 6.9 mph - N/A   Clear
9:55 PM 21.2 °F 13.6 °F 19.4 °F 93% 30.11 in 10.0 mi NNW 5.8 mph - N/A   Clear
10:15 PM 21.2 °F 11.7 °F 19.4 °F 93% 30.11 in 10.0 mi North 8.1 mph - N/A   Clear
10:35 PM 21.2 °F 13.6 °F 19.4 °F 93% 30.11 in 10.0 mi North 5.8 mph - N/A   Clear
10:55 PM 21.2 °F 14.9 °F 19.4 °F 93% 30.12 in 10.0 mi North 4.6 mph - N/A   Scattered Clouds
11:15 PM 21.2 °F 16.4 °F 19.4 °F 93% 30.13 in 10.0 mi North 3.5 mph - N/A   Scattered Clouds
11:35 PM 21.2 °F 13.6 °F 19.4 °F 93% 30.13 in 10.0 mi NNW 5.8 mph - N/A   Clear
11:55 PM 21.2 °F 12.6 °F 19.4 °F 93% 30.13 in 10.0 mi North 6.9 mph - N/A   Clear